STARLINK-5332 (55285 NORAD) Tracking and Keplerian Element Data

This shows tracking and keplerian element data for the satellite.

Feedback or suggestion? Click here.




ElementValue
Catalog55285
NameSTARLINK-5332
Epoch Orbit1846
Epoch Day126.32947842
Epoch Year2023
RAAN128.5171
Inclination69.997
Eccentricity0.0003433
Argument of Perigee270.2155
Mean Anonmoly89.8647
Mean Motion15.69920848
Decay Rate-3.79E-06
L11 55285U 23010S 23126.32947842 -.00000379 00000+0 -13780-5 0 9998
L22 55285 69.9970 128.5171 0003433 270.2155 89.8647 15.69920848 18460



Live tracking and technical data element details for STARLINK-5332 (NORAD 55285). STARLINK-5332 can be tracked NOW for your location showing map with azimuth and elevation plus other details from your city location.







IsCatalogInMostPopularTable: catalog: 55285, numindb: 1
Update: records affected: 1



GetName: 55285 STARLINK-5332

Hit Count: updated at: Mon, 05 Jun 2023 20:43:39 GMT